Theta_e
354 352 355 355 356 357 357 357 355 358 357 356 356 357 355 354 354 355 346 344 337 341 347 348 347 346 345 346 346 345 345 344 344 343 343 343 340 339 339 339 339 338 339
355 356 354 355 355 354 355 355 357 356 359 357 355 357 352 354 355 345 353 346 340 341 342 343 345 346 348 350 349 348 347 346 346 345 344 343 342 341 340 339 339 339 341
357 356 355 356 354 355 356 349 356 342 352 357 355 353 355 354 354 355 354 347 342 343 343 344 344 344 344 345 346 347 346 345 346 347 346 344 343 342 342 341 339 339 340
357 359 358 355 356 357 354 356 357 355 347 354 356 354 341 351 355 357 357 355 348 345 345 346 345 345 343 342 343 344 344 342 340 340 342 344 344 344 342 341 341 340 340
358 360 356 355 355 354 356 356 348 352 354 353 357 354 346 354 350 354 353 356 357 355 351 347 347 347 346 342 341 343 342 340 338 338 339 341 341 342 343 343 343 342 341
354 359 357 355 355 354 357 353 352 354 359 351 356 354 348 349 354 353 353 351 355 357 357 352 350 350 350 345 340 341 341 340 339 338 338 338 338 337 336 335 335 341 342
359 356 357 357 356 359 355 346 350 357 358 352 355 343 338 343 344 349 353 348 354 356 356 355 355 355 352 348 343 338 339 340 341 341 341 340 338 336 334 334 335 335 342
356 357 355 358 353 353 345 345 357 358 353 356 359 347 349 346 340 342 337 345 357 354 355 357 357 356 354 351 347 345 338 336 338 341 344 340 335 332 331 331 332 333 335
353 355 359 351 361 356 352 349 352 357 357 353 357 357 352 351 339 339 338 342 356 352 355 355 357 357 355 355 351 350 344 338 335 337 343 336 332 329 330 331 334 334 335
353 355 359 360 360 359 357 353 348 353 358 355 352 355 356 343 349 346 340 345 353 353 356 356 358 357 357 354 354 353 350 346 339 337 336 333 331 328 329 331 333 335 336
353 357 358 360 362 355 357 353 356 356 352 359 355 353 345 359 349 358 356 351 349 356 353 351 355 358 357 355 355 354 351 348 342 338 335 334 331 328 329 331 333 333 336
352 352 356 361 360 361 360 353 335 355 353 351 356 357 356 353 359 360 359 356 357 355 357 356 354 355 357 357 356 356 354 351 347 340 337 335 332 327 328 330 332 332 332
355 360 353 362 360 359 360 357 358 358 357 355 356 360 359 359 352 352 356 359 362 356 354 352 352 353 357 357 356 355 353 351 347 342 339 335 332 327 325 326 327 328 329
353 355 353 359 360 360 339 348 359 359 360 360 356 355 358 359 362 356 353 358 360 359 346 337 344 349 354 354 354 354 354 351 346 343 341 337 332 328 324 324 324 325 326
354 362 358 349 344 361 364 363 360 359 359 359 360 356 359 358 359 344 336 345 357 358 360 349 347 341 342 350 344 353 352 351 349 346 343 340 335 329 325 324 323 324 325
351 359 356 352 356 353 361 359 360 360 360 358 362 361 359 357 355 355 342 354 356 356 360 357 356 346 346 344 335 350 352 352 352 351 348 345 342 334 328 325 324 324 325
349 361 359 356 339 346 360 359 358 359 358 358 358 358 355 354 351 354 357 353 353 356 360 356 350 351 353 352 355 354 355 355 354 353 350 349 346 342 334 327 325 324 325
356 357 362 362 359 360 359 360 361 359 359 361 357 358 354 342 352 355 352 351 351 350 348 350 351 351 352 352 352 356 355 355 355 354 353 351 349 347 345 340 329 326 325
358 360 360 362 357 355 355 357 359 358 357 359 357 355 354 353 352 352 351 351 350 349 348 350 348 345 344 349 350 351 353 354 354 352 352 350 350 349 348 345 343 335 327
355 354 354 356 353 353 353 353 353 353 352 351 352 351 351 349 349 349 348 344 344 347 348 348 343 342 342 341 346 344 350 351 351 350 352 351 349 348 348 346 344 342 339
348 348 349 351 350 350 350 349 345 344 344 344 345 345 343 339 338 336 336 335 335 334 335 337 335 332 332 337 336 336 341 342 343 343 347 348 343 344 346 347 344 343 341
340 341 342 340 342 341 339 337 333 329 330 334 337 338 337 336 336 334 334 333 335 335 336 340 340 338 338 337 336 335 338 341 341 337 338 339 341 340 345 345 344 343 342
339 343 343 342 341 340 336 331 325 322 323 333 334 337 337 337 336 337 337 335 332 331 332 334 338 340 341 341 343 346 345 343 345 344 342 341 339 338 343 343 345 346 343
339 339 339 339 339 337 333 325 323 324 326 326 330 331 334 333 335 333 332 330 331 330 331 332 332 335 338 340 341 342 339 336 339 340 336 339 337 340 339 337 337 338 343
339 338 337 336 337 336 335 327 322 323 325 327 326 329 329 328 329 330 330 328 327 326 326 326 327 329 330 331 336 337 338 338 337 336 334 335 336 339 335 337 339 340 341
336 335 334 333 334 333 333 330 326 322 325 327 326 325 325 325 325 325 324 323 323 324 323 324 321 320 321 322 324 328 332 339 338 336 336 338 340 340 341 339 341 342 342
Wind_Speed
13 8 7 8 8 13 14 5 5 8 9 11 17 15 8 11 13 11 12 4 5 7 6 7 8 7 10 9 10 11 13 15 17 19 20 22 22 21 19 19 19 19 18
7 10 10 11 11 12 13 2 4 6 11 12 10 15 12 15 14 14 8 12 10 9 9 9 8 6 6 7 8 9 10 12 14 15 16 18 20 20 19 20 20 18 18
12 11 14 11 14 17 8 6 8 7 14 11 11 12 10 4 12 19 15 14 15 11 10 9 8 7 6 5 6 7 7 7 8 10 12 14 16 18 19 19 20 19 17
12 13 15 13 14 7 9 8 3 7 12 14 13 9 10 8 4 15 19 14 14 12 11 9 7 5 5 4 5 5 5 4 5 6 7 9 11 13 16 17 19 19 19
12 16 14 15 8 14 13 2 2 7 16 18 6 16 8 13 6 16 11 18 13 14 10 11 7 4 2 2 4 5 5 5 4 4 4 5 5 6 7 11 15 19 19
9 14 15 13 8 14 2 8 2 11 16 13 12 8 19 24 8 11 16 10 18 15 13 10 9 6 4 2 3 6 6 6 6 5 5 4 4 4 4 5 7 11 18
10 10 14 8 9 12 1 9 7 19 14 13 5 18 21 16 20 30 11 12 20 18 14 12 9 9 9 6 5 5 6 7 7 6 6 5 5 6 7 8 9 7 10
12 12 12 11 12 18 10 5 13 12 15 17 3 15 1 11 7 15 26 40 22 17 16 18 14 12 11 12 11 6 6 8 9 8 8 7 7 6 7 7 8 10 8
17 18 15 8 7 12 4 4 11 14 7 7 9 3 3 5 1 6 23 26 6 11 21 20 19 16 11 12 14 10 8 8 9 9 11 9 8 7 6 6 6 8 11
19 20 16 13 11 10 10 7 19 11 7 6 3 2 3 16 3 3 7 2 11 14 10 17 23 19 17 15 15 15 12 10 9 11 11 10 9 8 7 7 7 7 9
20 20 19 17 14 14 10 13 10 7 12 9 6 4 8 17 27 5 5 13 19 18 19 14 16 20 22 17 18 19 13 12 11 11 11 11 10 9 8 7 7 8 9
22 26 23 19 13 13 16 13 11 8 15 13 11 7 9 7 1 6 4 9 13 25 25 19 17 15 21 17 16 17 16 16 12 13 13 12 10 8 8 8 7 7 8
23 26 23 20 15 14 11 14 14 15 11 11 12 13 17 19 10 12 8 7 1 3 9 22 19 16 15 15 15 14 16 17 15 14 13 11 10 10 9 9 9 9 9
19 20 27 17 15 11 9 26 14 14 12 12 13 13 17 21 18 14 13 9 4 4 4 10 24 33 16 14 12 15 17 16 15 15 14 13 12 11 11 10 11 11 11
10 15 17 12 22 7 11 15 13 14 13 11 12 13 15 20 19 7 9 29 1 2 3 10 6 10 6 11 27 17 17 16 14 16 16 15 14 13 12 12 12 12 12
19 12 12 17 23 13 8 14 11 13 13 10 11 10 10 15 16 10 13 21 9 2 1 10 10 20 18 2 23 28 19 15 13 16 18 18 18 16 15 15 14 14 13
24 9 10 11 17 14 15 14 13 13 7 8 10 9 5 12 18 17 8 11 12 10 2 7 14 1 3 4 16 17 17 15 14 17 19 20 19 19 18 19 18 17 16
18 14 9 8 11 14 13 10 10 10 8 7 6 3 1 5 18 11 13 14 10 13 13 10 13 13 14 13 9 14 17 14 16 19 22 22 19 18 19 20 21 21 20
16 12 11 11 13 14 13 11 5 7 8 6 4 5 4 2 6 7 10 12 13 13 14 11 11 15 15 11 9 10 15 17 18 20 23 22 21 23 23 23 24 25 25
4 7 7 6 7 7 7 2 3 3 3 3 4 5 2 2 3 5 5 5 10 12 13 14 16 19 15 11 10 10 12 16 17 19 21 21 20 25 27 24 23 24 28
15 17 13 8 5 3 4 5 4 4 5 5 4 5 5 7 8 7 6 8 11 13 15 16 16 19 19 15 15 13 12 14 18 19 20 18 16 23 29 31 27 26 26
9 8 10 11 7 4 4 5 5 4 4 7 8 7 6 8 5 4 4 4 6 11 14 15 15 15 18 21 22 19 17 15 6 18 20 21 14 22 28 31 30 28 27
4 5 5 5 3 5 5 4 5 6 5 5 7 8 7 8 5 4 6 6 9 12 15 17 20 18 19 20 21 20 18 18 19 20 18 23 24 24 19 17 27 29 29
2 4 4 3 4 7 7 6 6 5 5 5 6 8 9 10 10 3 4 11 11 13 14 16 18 20 17 20 17 17 20 24 26 25 25 19 32 27 23 26 27 23 30
5 4 4 5 4 6 5 7 6 5 8 5 8 5 9 10 11 8 5 10 12 15 16 17 20 20 23 23 21 20 23 17 17 21 25 26 22 20 18 26 24 23 18
2 3 5 6 7 5 5 6 9 9 10 9 9 7 10 6 4 10 8 12 17 21 21 20 25 25 24 24 23 25 30 22 20 14 21 4 7 8 5 15 14 16 20
Wind_Direction
223 254 266 275 265 266 293 197 274 248 237 225 211 207 211 237 107 135 130 173 140 148 167 181 192 197 200 213 219 227 231 235 238 240 239 237 236 237 236 239 245 241 238
248 261 260 253 265 269 260 245 294 287 290 234 226 207 221 218 202 209 224 168 158 152 147 155 165 173 198 218 227 229 237 240 240 241 239 238 239 238 239 237 241 242 238
249 262 264 253 259 272 274 258 248 268 305 286 232 203 249 58 184 169 172 171 168 167 156 150 151 162 181 207 214 217 215 219 229 239 240 239 238 238 239 237 238 239 236
236 246 262 260 264 282 258 246 58 277 297 278 296 204 246 254 278 160 182 178 172 170 170 162 151 154 165 182 189 187 187 196 206 216 224 227 232 239 243 242 241 239 233
217 246 254 251 268 249 276 200 196 215 283 276 276 224 194 192 216 213 176 185 176 187 182 173 165 153 138 158 164 175 180 181 173 167 159 161 188 220 245 246 243 239 235
248 231 263 236 235 265 284 80 219 277 278 294 44 53 341 12 354 238 151 175 167 177 188 175 182 183 188 172 177 177 181 184 180 177 176 164 181 197 226 241 246 240 232
226 246 265 194 244 332 289 304 238 260 267 280 132 99 335 302 318 346 308 209 169 175 186 195 195 207 201 195 192 185 193 197 206 206 209 215 244 257 253 248 247 246 234
234 259 240 256 256 236 244 261 282 279 289 330 60 96 77 329 273 352 282 316 194 175 198 194 199 204 208 205 199 193 206 207 211 216 223 240 259 265 255 253 243 237 224
231 243 238 247 242 219 195 149 265 262 268 359 340 161 140 228 5 130 262 298 232 184 205 197 208 187 185 216 209 209 202 208 219 218 222 239 262 264 247 242 238 227 221
229 238 244 240 255 263 170 198 238 243 257 236 233 9 89 164 163 295 337 202 267 218 201 202 193 194 193 209 221 224 212 203 213 213 226 238 255 254 246 243 233 224 224
219 238 244 227 227 243 207 187 190 244 276 280 296 241 163 215 177 168 163 241 246 242 209 211 220 207 200 206 213 225 227 221 220 215 220 231 242 244 240 235 223 226 223
232 228 233 216 223 241 251 261 260 243 260 287 299 310 292 268 277 203 223 189 231 195 206 200 212 198 205 201 213 216 223 221 225 222 221 222 232 239 241 236 234 233 228
226 219 221 214 209 235 274 276 227 244 253 269 276 291 295 304 236 237 269 307 335 318 193 210 206 204 203 211 217 229 231 232 233 226 229 232 234 239 241 242 240 237 236
273 244 207 211 208 198 206 250 245 258 265 273 267 266 280 294 308 347 359 359 345 348 231 249 334 10 352 206 224 250 241 246 242 240 239 237 238 240 242 246 249 248 244
262 179 198 230 258 216 207 228 234 249 256 273 257 250 266 279 304 46 49 292 240 273 323 158 106 161 299 306 334 268 240 250 253 254 249 248 247 246 247 251 252 253 253
247 218 214 193 215 231 252 252 237 262 248 257 253 254 267 290 303 319 182 255 268 184 189 321 52 147 157 306 269 253 238 248 252 259 255 259 259 257 255 255 254 255 263
238 236 232 226 233 233 256 259 262 270 275 259 265 274 320 322 324 308 307 324 335 356 350 313 337 62 294 260 249 219 224 239 255 264 262 261 261 262 263 259 259 259 261
235 241 220 223 234 241 247 251 261 267 264 259 277 295 277 34 284 307 321 321 340 332 319 313 319 308 306 307 293 249 246 239 249 255 265 260 258 264 266 264 259 259 259
243 254 247 254 250 262 265 269 308 302 281 303 341 68 75 100 278 291 314 325 324 320 321 311 314 301 296 285 283 271 262 257 259 261 265 261 264 269 269 268 265 261 256
286 289 300 315 265 263 240 102 74 0 331 323 338 330 359 275 247 276 300 340 315 309 303 300 303 300 312 318 264 269 250 257 254 260 262 269 272 268 262 264 265 265 261
70 60 53 48 58 92 105 98 58 10 347 332 352 327 330 346 323 305 284 298 312 325 317 320 318 318 321 335 335 321 293 281 270 278 272 250 275 277 261 250 255 266 265
49 52 54 319 347 3 354 10 346 321 326 322 322 316 318 320 33 28 346 302 317 316 303 295 303 307 310 315 312 312 313 314 311 292 301 292 265 282 278 260 259 254 261
24 116 172 200 355 343 289 307 318 307 304 311 320 330 326 320 3 72 42 341 329 310 302 286 276 282 289 292 298 296 294 292 287 287 294 291 286 276 272 286 276 271 251
220 69 27 2 300 292 295 309 304 305 301 305 308 318 297 295 304 300 293 298 294 288 289 292 293 288 288 281 279 280 285 287 282 281 282 268 271 264 266 275 278 282 258
47 14 325 309 293 285 294 326 326 313 320 310 305 295 286 279 290 301 344 296 299 303 304 293 291 293 289 280 277 280 275 270 267 267 269 266 269 261 286 287 263 271 260
13 301 286 295 291 292 305 316 326 332 330 324 320 317 290 286 7 13 324 307 304 306 307 294 291 289 284 280 273 265 265 256 256 259 262 288 307 327 315 297 295 275 258